"Time","Value","Approval","myLocation"
"2023-05-06 00:00",22.6249714569207,"Approved","OW340"
"2023-05-06 01:00",22.6243655423634,"Approved","OW340"
"2023-05-06 02:00",22.622225657806,"Approved","OW340"
"2023-05-06 03:00",22.6220596932487,"Approved","OW340"
"2023-05-06 04:00",22.6211717486913,"Approved","OW340"
"2023-05-06 05:00",22.619531864134,"Approved","OW340"
"2023-05-06 06:00",22.6192599095766,"Approved","OW340"
"2023-05-06 07:00",22.6194999350192,"Approved","OW340"
"2023-05-06 08:00",22.6205219904619,"Approved","OW340"
"2023-05-06 09:00",22.6215220559045,"Approved","OW340"
"2023-05-06 10:00",22.6228580913472,"Approved","OW340"
"2023-05-06 11:00",22.6248461767898,"Approved","OW340"
"2023-05-06 12:00",22.6257342622325,"Approved","OW340"
"2023-05-06 13:00",22.6245423276751,"Approved","OW340"
"2023-05-06 14:00",22.6246723731178,"Approved","OW340"
"2023-05-06 15:00",22.6234924185604,"Approved","OW340"
"2023-05-06 16:00",22.6218884940031,"Approved","OW340"
"2023-05-06 17:00",22.6204265294457,"Approved","OW340"
"2023-05-06 18:00",22.6190525748884,"Approved","OW340"
"2023-05-06 19:00",22.617860630331,"Approved","OW340"
"2023-05-06 20:00",22.6177066557737,"Approved","OW340"
"2023-05-06 21:00",22.6178227112163,"Approved","OW340"
"2023-05-06 22:00",22.617542756659,"Approved","OW340"
"2023-05-06 23:00",22.6189887821016,"Approved","OW340"
"2023-05-07 00:00",22.6198048375443,"Approved","OW340"
"2023-05-07 01:00",22.6195109029869,"Approved","OW340"
"2023-05-07 02:00",22.6188289584296,"Approved","OW340"
"2023-05-07 03:00",22.6199809738722,"Approved","OW340"
"2023-05-07 04:00",22.6187830393149,"Approved","OW340"
"2023-05-07 05:00",22.6173871147575,"Approved","OW340"
"2023-05-07 06:00",22.6182471202002,"Approved","OW340"
"2023-05-07 07:00",22.6197470756428,"Approved","OW340"
"2023-05-07 08:00",22.6197811110855,"Approved","OW340"
"2023-05-07 09:00",22.6206811865281,"Approved","OW340"
"2023-05-07 10:00",22.6204732619707,"Approved","OW340"
"2023-05-07 11:00",22.6203533574134,"Approved","OW340"
"2023-05-07 12:00",22.621373412856,"Approved","OW340"
"2023-05-07 13:00",22.6236834782987,"Approved","OW340"
"2023-05-07 14:00",22.6226815537413,"Approved","OW340"
"2023-05-07 15:00",22.620635679184,"Approved","OW340"
"2023-05-07 16:00",22.6188057846266,"Approved","OW340"
"2023-05-07 17:00",22.6162858800693,"Approved","OW340"
"2023-05-07 18:00",22.6143380055119,"Approved","OW340"
"2023-05-07 19:00",22.6119181009546,"Approved","OW340"
"2023-05-07 20:00",22.6106101863972,"Approved","OW340"
"2023-05-07 21:00",22.6234622018399,"Approved","OW340"
"2023-05-07 22:00",22.6282542772825,"Approved","OW340"
"2023-05-07 23:00",22.6328783227252,"Approved","OW340"
"2023-05-08 00:00",22.6348364481678,"Approved","OW340"
"2023-05-08 01:00",22.6365145436105,"Approved","OW340"
"2023-05-08 02:00",22.6394146190531,"Approved","OW340"
"2023-05-08 03:00",22.6394927144958,"Approved","OW340"
"2023-05-08 04:00",22.6392867999384,"Approved","OW340"
"2023-05-08 05:00",22.6380928653811,"Approved","OW340"
"2023-05-08 06:00",22.6391129108237,"Approved","OW340"
"2023-05-08 07:00",22.6396309662664,"Approved","OW340"
"2023-05-08 08:00",22.640287091709,"Approved","OW340"
"2023-05-08 09:00",22.6413591971517,"Approved","OW340"
"2023-05-08 10:00",22.6429193125943,"Approved","OW340"
"2023-05-08 11:00",22.642971438037,"Approved","OW340"
"2023-05-08 12:00",22.6434135734796,"Approved","OW340"
"2023-05-08 13:00",22.6430457289222,"Approved","OW340"
"2023-05-08 14:00",22.6414958543649,"Approved","OW340"
"2023-05-08 15:00",22.6399359998075,"Approved","OW340"
"2023-05-08 16:00",22.6374721452502,"Approved","OW340"
"2023-05-08 17:00",22.6369882006928,"Approved","OW340"
"2023-05-08 18:00",22.6349603061355,"Approved","OW340"
"2023-05-08 19:00",22.6346663715781,"Approved","OW340"
"2023-05-08 20:00",22.6355523470208,"Approved","OW340"
"2023-05-08 21:00",22.6366443124634,"Approved","OW340"
"2023-05-08 22:00",22.6358623679061,"Approved","OW340"
"2023-05-08 23:00",22.6393683233487,"Approved","OW340"
"2023-05-09 00:00",22.6403383187914,"Approved","OW340"
"2023-05-09 01:00",22.640586334234,"Approved","OW340"
"2023-05-09 02:00",22.6434902896767,"Approved","OW340"
"2023-05-09 03:00",22.6441982451193,"Approved","OW340"
"2023-05-09 04:00",22.644564240562,"Approved","OW340"
"2023-05-09 05:00",22.6459641960046,"Approved","OW340"
"2023-05-09 06:00",22.6496381914473,"Approved","OW340"
"2023-05-09 07:00",22.6506501368899,"Approved","OW340"
"2023-05-09 08:00",22.6526741823326,"Approved","OW340"
"2023-05-09 09:00",22.6530221977752,"Approved","OW340"
"2023-05-09 10:00",22.6533262632179,"Approved","OW340"
"2023-05-09 11:00",22.6528243386605,"Approved","OW340"
"2023-05-09 12:00",22.6520964441032,"Approved","OW340"
"2023-05-09 13:00",22.6510425795458,"Approved","OW340"
"2023-05-09 14:00",22.6507146849885,"Approved","OW340"
"2023-05-09 15:00",22.6492388504311,"Approved","OW340"
"2023-05-09 16:00",22.6473550158737,"Approved","OW340"
"2023-05-09 17:00",22.6457251213164,"Approved","OW340"
"2023-05-09 18:00",22.644521196759,"Approved","OW340"
"2023-05-09 19:00",22.6449632222017,"Approved","OW340"
"2023-05-09 20:00",22.6438892676443,"Approved","OW340"
"2023-05-09 21:00",22.644757263087,"Approved","OW340"
"2023-05-09 22:00",22.6446513485296,"Approved","OW340"
"2023-05-09 23:00",22.6431194539723,"Approved","OW340"
"2023-05-10 00:00",22.6425995494149,"Approved","OW340"
"2023-05-10 01:00",22.6425176048576,"Approved","OW340"
"2023-05-10 02:00",22.6411076903002,"Approved","OW340"
"2023-05-10 03:00",22.6406257457429,"Approved","OW340"
"2023-05-10 04:00",22.6390678811855,"Approved","OW340"
"2023-05-10 05:00",22.6382359866282,"Approved","OW340"
"2023-05-10 06:00",22.6390840120708,"Approved","OW340"
"2023-05-10 07:00",22.6391940675135,"Approved","OW340"
"2023-05-10 08:00",22.6408921429561,"Approved","OW340"
"2023-05-10 09:00",22.6399662483988,"Approved","OW340"
"2023-05-10 10:00",22.6402603238414,"Approved","OW340"
"2023-05-10 11:00",22.6398144492841,"Approved","OW340"
"2023-05-10 12:00",22.6382446047267,"Approved","OW340"
"2023-05-10 13:00",22.6370507901694,"Approved","OW340"
"2023-05-10 14:00",22.635692925612,"Approved","OW340"
"2023-05-10 15:00",22.6340831210547,"Approved","OW340"
"2023-05-10 16:00",22.6322172664973,"Approved","OW340"
"2023-05-10 17:00",22.63133943194,"Approved","OW340"
"2023-05-10 18:00",22.6296075373826,"Approved","OW340"
"2023-05-10 19:00",22.6290156028253,"Approved","OW340"
"2023-05-10 20:00",22.6298055782679,"Approved","OW340"
"2023-05-10 21:00",22.6322375037105,"Approved","OW340"
"2023-05-10 22:00",22.6308815191532,"Approved","OW340"
"2023-05-10 23:00",22.6317435245958,"Approved","OW340"
"2023-05-11 00:00",22.6325135200385,"Approved","OW340"
"2023-05-11 01:00",22.6321655354811,"Approved","OW340"
"2023-05-11 02:00",22.6329935709238,"Approved","OW340"
"2023-05-11 03:00",22.6352855463664,"Approved","OW340"
"2023-05-11 04:00",22.6341255718091,"Approved","OW340"
"2023-05-11 05:00",22.6367975672517,"Approved","OW340"
"2023-05-11 06:00",22.6394915326944,"Approved","OW340"
"2023-05-11 07:00",22.641415468137,"Approved","OW340"
"2023-05-11 08:00",22.6438455035797,"Approved","OW340"
"2023-05-11 09:00",22.6450895290223,"Approved","OW340"
"2023-05-11 10:00",22.645477614465,"Approved","OW340"
"2023-05-11 11:00",22.6449437199076,"Approved","OW340"
"2023-05-11 12:00",22.6440958553503,"Approved","OW340"
"2023-05-11 13:00",22.6455719507929,"Approved","OW340"
"2023-05-11 14:00",22.6448320662356,"Approved","OW340"
"2023-05-11 15:00",22.6430682116782,"Approved","OW340"
"2023-05-11 16:00",22.6426203471209,"Approved","OW340"
"2023-05-11 17:00",22.6406524925635,"Approved","OW340"
"2023-05-11 18:00",22.6390565580062,"Approved","OW340"
"2023-05-11 19:00",22.6399085734488,"Approved","OW340"
"2023-05-11 20:00",22.6402525988915,"Approved","OW340"
"2023-05-11 21:00",22.6399685443341,"Approved","OW340"
"2023-05-11 22:00",22.6403985797768,"Approved","OW340"
"2023-05-11 23:00",22.6395086452194,"Approved","OW340"
"2023-05-12 00:00",22.639186630662,"Approved","OW340"
"2023-05-12 01:00",22.6397746061047,"Approved","OW340"
"2023-05-12 02:00",22.6399306115473,"Approved","OW340"
"2023-05-12 03:00",22.64041059699,"Approved","OW340"
"2023-05-12 04:00",22.6406406324326,"Approved","OW340"
"2023-05-12 05:00",22.6405986378753,"Approved","OW340"
"2023-05-12 06:00",22.6429926033179,"Approved","OW340"
"2023-05-12 07:00",22.6455185387606,"Approved","OW340"
"2023-05-12 08:00",22.6472085042032,"Approved","OW340"
"2023-05-12 09:00",22.6466525296459,"Approved","OW340"
"2023-05-12 10:00",22.6465566050885,"Approved","OW340"
"2023-05-12 11:00",22.6476466805312,"Approved","OW340"
"2023-05-12 12:00",22.6433448759738,"Approved","OW340"
"2023-05-12 13:00",22.6418970014165,"Approved","OW340"
"2023-05-12 14:00",22.6424150568591,"Approved","OW340"
"2023-05-12 15:00",22.6418711723018,"Approved","OW340"
"2023-05-12 16:00",22.6413053277444,"Approved","OW340"
"2023-05-12 17:00",22.6396794231871,"Approved","OW340"
"2023-05-12 18:00",22.6377315586297,"Approved","OW340"
"2023-05-12 19:00",22.6372176440724,"Approved","OW340"
"2023-05-12 20:00",22.637857669515,"Approved","OW340"
"2023-05-12 21:00",22.6391977049577,"Approved","OW340"
"2023-05-12 22:00",22.6386357304003,"Approved","OW340"
"2023-05-12 23:00",22.639721705843,"Approved","OW340"
"2023-05-13 00:00",22.6397496312856,"Approved","OW340"
"2023-05-13 01:00",22.6398956567283,"Approved","OW340"
"2023-05-13 02:00",22.6386997221709,"Approved","OW340"
"2023-05-13 03:00",22.6380337576135,"Approved","OW340"
"2023-05-13 04:00",22.6390377130562,"Approved","OW340"
"2023-05-13 05:00",22.6403677484988,"Approved","OW340"
"2023-05-13 06:00",22.6438477339415,"Approved","OW340"
"2023-05-13 07:00",22.6441577993841,"Approved","OW340"
"2023-05-13 08:00",22.6443918348268,"Approved","OW340"
"2023-05-13 09:00",22.6447178802694,"Approved","OW340"
"2023-05-13 10:00",22.6441039657121,"Approved","OW340"
"2023-05-13 11:00",22.6426560911547,"Approved","OW340"
"2023-05-13 12:00",22.6405922365974,"Approved","OW340"
"2023-05-13 13:00",22.63899842204,"Approved","OW340"
"2023-05-13 14:00",22.6367606474827,"Approved","OW340"
"2023-05-13 15:00",22.6343128929253,"Approved","OW340"
"2023-05-13 16:00",22.629943158368,"Approved","OW340"
"2023-05-13 17:00",22.6278153738106,"Approved","OW340"
"2023-05-13 18:00",22.6248015792533,"Approved","OW340"
"2023-05-13 19:00",22.6232977646959,"Approved","OW340"
"2023-05-13 20:00",22.6233858501386,"Approved","OW340"
"2023-05-13 21:00",22.6220739355812,"Approved","OW340"
"2023-05-13 22:00",22.6217560310239,"Approved","OW340"
"2023-05-13 23:00",22.6204301364665,"Approved","OW340"
"2023-05-14 00:00",22.6209781519092,"Approved","OW340"
"2023-05-14 01:00",22.6208321673518,"Approved","OW340"
"2023-05-14 02:00",22.6201482227945,"Approved","OW340"
"2023-05-14 03:00",22.6196343082371,"Approved","OW340"
"2023-05-14 04:00",22.6178804436798,"Approved","OW340"
"2023-05-14 05:00",22.6181225791224,"Approved","OW340"
"2023-05-14 06:00",22.617502674565,"Approved","OW340"
"2023-05-14 07:00",22.6183667900077,"Approved","OW340"
"2023-05-14 08:00",22.6194229154503,"Approved","OW340"
"2023-05-14 09:00",22.618161060893,"Approved","OW340"
"2023-05-14 10:00",22.6166372763356,"Approved","OW340"
"2023-05-14 11:00",22.6153915117783,"Approved","OW340"
"2023-05-14 12:00",22.6109637272209,"Approved","OW340"
"2023-05-14 13:00",22.6076159726636,"Approved","OW340"
"2023-05-14 14:00",22.6042021781062,"Approved","OW340"
"2023-05-14 15:00",22.5997104635489,"Approved","OW340"
"2023-05-14 16:00",22.5988266289915,"Approved","OW340"
"2023-05-14 17:00",22.5964428044342,"Approved","OW340"
"2023-05-14 18:00",22.5959569698768,"Approved","OW340"
"2023-05-14 19:00",22.5959150953195,"Approved","OW340"
"2023-05-14 20:00",22.5962111707621,"Approved","OW340"
"2023-05-14 21:00",22.5970831662048,"Approved","OW340"
"2023-05-14 22:00",22.5975652516474,"Approved","OW340"
"2023-05-14 23:00",22.5994512270901,"Approved","OW340"
"2023-05-15 00:00",22.6002912625327,"Approved","OW340"
"2023-05-15 01:00",22.6008332879754,"Approved","OW340"
"2023-05-15 02:00",22.601059323418,"Approved","OW340"
"2023-05-15 03:00",22.5998254388607,"Approved","OW340"
"2023-05-15 04:00",22.5969855543033,"Approved","OW340"
"2023-05-15 05:00",22.598519589746,"Approved","OW340"
"2023-05-15 06:00",22.6002096751886,"Approved","OW340"
"2023-05-15 07:00",22.6010217406313,"Approved","OW340"
"2023-05-15 08:00",22.6012018360739,"Approved","OW340"
"2023-05-15 09:00",22.6016559615165,"Approved","OW340"
"2023-05-15 10:00",22.6014500369592,"Approved","OW340"
"2023-05-15 11:00",22.5995041624018,"Approved","OW340"
"2023-05-15 12:00",22.5977203278445,"Approved","OW340"
"2023-05-15 13:00",22.5954644732871,"Approved","OW340"
"2023-05-15 14:00",22.5931586587298,"Approved","OW340"
"2023-05-15 15:00",22.5896528541724,"Approved","OW340"
"2023-05-15 16:00",22.5869370596151,"Approved","OW340"
"2023-05-15 17:00",22.5820512350577,"Approved","OW340"
"2023-05-15 18:00",22.5668694005004,"Approved","OW340"
"2023-05-15 19:00",22.559067475943,"Approved","OW340"
"2023-05-15 20:00",22.5539055013857,"Approved","OW340"
"2023-05-15 21:00",22.5518454168283,"Approved","OW340"
"2023-05-15 22:00",22.550205422271,"Approved","OW340"
"2023-05-15 23:00",22.5488033877136,"Approved","OW340"
"2023-05-16 00:00",22.5500611631563,"Approved","OW340"
"2023-05-16 01:00",22.5493290485989,"Approved","OW340"
"2023-05-16 02:00",22.5492789540416,"Approved","OW340"
"2023-05-16 03:00",22.5479789094842,"Approved","OW340"
"2023-05-16 04:00",22.5481908549269,"Approved","OW340"
"2023-05-16 05:00",22.5480908203695,"Approved","OW340"
"2023-05-16 06:00",22.5502947758122,"Approved","OW340"
"2023-05-16 07:00",22.5502208112548,"Approved","OW340"
"2023-05-16 08:00",22.5515387566975,"Approved","OW340"
"2023-05-16 09:00",22.5538827821401,"Approved","OW340"
"2023-05-16 10:00",22.5537028275828,"Approved","OW340"
"2023-05-16 11:00",22.5522029030254,"Approved","OW340"
"2023-05-16 12:00",22.5487350484681,"Approved","OW340"
"2023-05-16 13:00",22.5462751939107,"Approved","OW340"
"2023-05-16 14:00",22.5405174493533,"Approved","OW340"
"2023-05-16 15:00",22.536059694796,"Approved","OW340"
"2023-05-16 16:00",22.5309759802386,"Approved","OW340"
"2023-05-16 17:00",22.5275521956813,"Approved","OW340"
"2023-05-16 18:00",22.5273422811239,"Approved","OW340"
"2023-05-16 19:00",22.5262864165666,"Approved","OW340"
"2023-05-16 20:00",22.5275244420092,"Approved","OW340"
"2023-05-16 21:00",22.5284224074519,"Approved","OW340"
"2023-05-16 22:00",22.5295744228945,"Approved","OW340"
"2023-05-16 23:00",22.5293824883372,"Approved","OW340"
"2023-05-17 00:00",22.5295366137798,"Approved","OW340"
"2023-05-17 01:00",22.5273586592225,"Approved","OW340"
"2023-05-17 02:00",22.5264847046651,"Approved","OW340"
"2023-05-17 03:00",22.5259887701078,"Approved","OW340"
"2023-05-17 04:00",22.5235748555504,"Approved","OW340"
"2023-05-17 05:00",22.5233969109931,"Approved","OW340"
"2023-05-17 06:00",22.5253009764357,"Approved","OW340"
"2023-05-17 07:00",22.5247730818784,"Approved","OW340"
"2023-05-17 08:00",22.524701237321,"Approved","OW340"
"2023-05-17 09:00",22.5244234027637,"Approved","OW340"
"2023-05-17 10:00",22.5233355682063,"Approved","OW340"
"2023-05-17 11:00",22.523257733649,"Approved","OW340"
"2023-05-17 12:00",22.5202079790916,"Approved","OW340"
"2023-05-17 13:00",22.5181582145343,"Approved","OW340"
"2023-05-17 14:00",22.5160104599769,"Approved","OW340"
"2023-05-17 15:00",22.5120447254196,"Approved","OW340"
"2023-05-17 16:00",22.5072849708622,"Approved","OW340"
"2023-05-17 17:00",22.5035132463049,"Approved","OW340"
"2023-05-17 18:00",22.5002874617475,"Approved","OW340"
"2023-05-17 19:00",22.4991455771901,"Approved","OW340"
"2023-05-17 20:00",22.4995796126328,"Approved","OW340"
"2023-05-17 21:00",22.5028376180754,"Approved","OW340"
"2023-05-17 22:00",22.5030576735181,"Approved","OW340"
"2023-05-17 23:00",22.5045996989607,"Approved","OW340"
"2023-05-18 00:00",22.5040197444034,"Approved","OW340"
"2023-05-18 01:00",22.503839799846,"Approved","OW340"
"2023-05-18 02:00",22.5024418752887,"Approved","OW340"
"2023-05-18 03:00",22.5013599207313,"Approved","OW340"
"2023-05-18 04:00",22.501219926174,"Approved","OW340"
"2023-05-18 05:00",22.5015200016166,"Approved","OW340"
"2023-05-18 06:00",22.5035640270593,"Approved","OW340"
"2023-05-18 07:00",22.5042480025019,"Approved","OW340"
"2023-05-18 08:00",22.5048620579446,"Approved","OW340"
"2023-05-18 09:00",22.5056100833872,"Approved","OW340"
"2023-05-18 10:00",22.5049161488299,"Approved","OW340"
"2023-05-18 11:00",22.5061302042725,"Approved","OW340"
"2023-05-18 12:00",22.5046082997152,"Approved","OW340"
"2023-05-18 13:00",22.5044922751578,"Approved","OW340"
"2023-05-18 14:00",22.5008183206005,"Approved","OW340"
"2023-05-18 15:00",22.4986104060431,"Approved","OW340"
"2023-05-18 16:00",22.4973084814858,"Approved","OW340"
"2023-05-18 17:00",22.4963445169284,"Approved","OW340"
"2023-05-18 18:00",22.4957425923711,"Approved","OW340"
"2023-05-18 19:00",22.4962165778137,"Approved","OW340"
"2023-05-18 20:00",22.4979225332564,"Approved","OW340"
"2023-05-18 21:00",22.501064438699,"Approved","OW340"
"2023-05-18 22:00",22.5023524141416,"Approved","OW340"
"2023-05-18 23:00",22.5060743495843,"Approved","OW340"
"2023-05-19 00:00",22.5078002850269,"Approved","OW340"
"2023-05-19 01:00",22.5102302104696,"Approved","OW340"
"2023-05-19 02:00",22.5098962059122,"Approved","OW340"
"2023-05-19 03:00",22.5097801813549,"Approved","OW340"
"2023-05-19 04:00",22.5093901367975,"Approved","OW340"
"2023-05-19 05:00",22.5099681122402,"Approved","OW340"
"2023-05-19 06:00",22.5151860576828,"Approved","OW340"
"2023-05-19 07:00",22.5171860131255,"Approved","OW340"
"2023-05-19 08:00",22.5189659985681,"Approved","OW340"
"2023-05-19 09:00",22.5200780540108,"Approved","OW340"
"2023-05-19 10:00",22.5344841294534,"Approved","OW340"
"2023-05-19 11:00",22.5433282648961,"Approved","OW340"
"2023-05-19 12:00",22.5489684003387,"Approved","OW340"
"2023-05-19 13:00",22.5506865657814,"Approved","OW340"
"2023-05-19 14:00",22.551924711224,"Approved","OW340"
"2023-05-19 15:00",22.5498789466667,"Approved","OW340"
"2023-05-19 16:00",22.5485451721093,"Approved","OW340"
"2023-05-19 17:00",22.546717397552,"Approved","OW340"
"2023-05-19 18:00",22.5460976029946,"Approved","OW340"
"2023-05-19 19:00",22.5465197684373,"Approved","OW340"
"2023-05-19 20:00",22.5484697838799,"Approved","OW340"
"2023-05-19 21:00",22.5501437693226,"Approved","OW340"
"2023-05-19 22:00",22.5515538347652,"Approved","OW340"
"2023-05-19 23:00",22.5564238302079,"Approved","OW340"
"2023-05-20 00:00",22.5593176756505,"Approved","OW340"
"2023-05-20 01:00",22.5599317410931,"Approved","OW340"
"2023-05-20 02:00",22.5616777565358,"Approved","OW340"
"2023-05-20 03:00",22.5619018019784,"Approved","OW340"
"2023-05-20 04:00",22.5621538174211,"Approved","OW340"
"2023-05-20 05:00",22.5627138228637,"Approved","OW340"
"2023-05-20 06:00",22.5653958083064,"Approved","OW340"
"2023-05-20 07:00",22.567573783749,"Approved","OW340"
"2023-05-20 08:00",22.5682918391917,"Approved","OW340"
"2023-05-20 09:00",22.5701859246343,"Approved","OW340"
"2023-05-20 10:00",22.571964020077,"Approved","OW340"
"2023-05-20 11:00",22.5726061555196,"Approved","OW340"
"2023-05-20 12:00",22.5717323109623,"Approved","OW340"
"2023-05-20 13:00",22.5713624664049,"Approved","OW340"
"2023-05-20 14:00",22.5691546618476,"Approved","OW340"
"2023-05-20 15:00",22.5651108972902,"Approved","OW340"
"2023-05-20 16:00",22.5611451627329,"Approved","OW340"
"2023-05-20 17:00",22.5576473481755,"Approved","OW340"
"2023-05-20 18:00",22.5555874836182,"Approved","OW340"
"2023-05-20 19:00",22.5567374990608,"Approved","OW340"
"2023-05-20 20:00",22.5574375745035,"Approved","OW340"
"2023-05-20 21:00",22.5595694999461,"Approved","OW340"
"2023-05-20 22:00",22.5634734553888,"Approved","OW340"
"2023-05-20 23:00",22.5644494408314,"Approved","OW340"
"2023-05-21 00:00",22.5655054562741,"Approved","OW340"
"2023-05-21 01:00",22.5673834317167,"Approved","OW340"
"2023-05-21 02:00",22.5667034871594,"Approved","OW340"
"2023-05-21 03:00",22.564795572602,"Approved","OW340"
"2023-05-21 04:00",22.5653395880447,"Approved","OW340"
"2023-05-21 05:00",22.5651736234873,"Approved","OW340"
"2023-05-21 06:00",22.5699895689299,"Approved","OW340"
"2023-05-21 07:00",22.5713635543726,"Approved","OW340"
"2023-05-21 08:00",22.5723255598152,"Approved","OW340"
"2023-05-21 09:00",22.5743215252579,"Approved","OW340"
"2023-05-21 10:00",22.5749476807005,"Approved","OW340"
"2023-05-21 11:00",22.5743978161432,"Approved","OW340"
"2023-05-21 12:00",22.5739958915858,"Approved","OW340"
"2023-05-21 13:00",22.5746599970285,"Approved","OW340"
"2023-05-21 14:00",22.5745161224711,"Approved","OW340"
"2023-05-21 15:00",22.5725462779138,"Approved","OW340"
"2023-05-21 16:00",22.5706664433564,"Approved","OW340"
"2023-05-21 17:00",22.5680985887991,"Approved","OW340"
"2023-05-21 18:00",22.5674006642417,"Approved","OW340"
"2023-05-21 19:00",22.5662446896844,"Approved","OW340"
"2023-05-21 20:00",22.566742645127,"Approved","OW340"
"2023-05-21 21:00",22.5686746805697,"Approved","OW340"
"2023-05-21 22:00",22.5672007260123,"Approved","OW340"
"2023-05-21 23:00",22.567008791455,"Approved","OW340"
"2023-05-22 00:00",22.5693448268976,"Approved","OW340"
"2023-05-22 01:00",22.5692608823403,"Approved","OW340"
"2023-05-22 02:00",22.5685369777829,"Approved","OW340"
"2023-05-22 03:00",22.5690630232256,"Approved","OW340"
"2023-05-22 04:00",22.5660351286682,"Approved","OW340"
"2023-05-22 05:00",22.5657292041109,"Approved","OW340"
"2023-05-22 06:00",22.5679672395535,"Approved","OW340"
"2023-05-22 07:00",22.5671493349962,"Approved","OW340"
"2023-05-22 08:00",22.5679733804388,"Approved","OW340"
"2023-05-22 09:00",22.5689175158814,"Approved","OW340"
"2023-05-22 10:00",22.5694235813241,"Approved","OW340"
"2023-05-22 11:00",22.5693256567667,"Approved","OW340"
"2023-05-22 12:00",22.5700377122094,"Approved","OW340"
"2023-05-22 13:00",22.570707817652,"Approved","OW340"
"2023-05-22 14:00",22.5701158830947,"Approved","OW340"
"2023-05-22 15:00",22.5686999785373,"Approved","OW340"
"2023-05-22 16:00",22.56775809398,"Approved","OW340"
"2023-05-22 17:00",22.5668501794226,"Approved","OW340"
"2023-05-22 18:00",22.5662702248653,"Approved","OW340"
"2023-05-22 19:00",22.5657663103079,"Approved","OW340"
"2023-05-22 20:00",22.5656763657506,"Approved","OW340"
"2023-05-22 21:00",22.5665563511932,"Approved","OW340"
"2023-05-22 22:00",22.5677762866359,"Approved","OW340"
"2023-05-22 23:00",22.5689382920785,"Approved","OW340"
"2023-05-23 00:00",22.5668005175212,"Approved","OW340"
"2023-05-23 01:00",22.5657886029638,"Approved","OW340"
"2023-05-23 02:00",22.5655966684065,"Approved","OW340"
"2023-05-23 03:00",22.5650947438491,"Approved","OW340"
"2023-05-23 04:00",22.5635808392918,"Approved","OW340"
"2023-05-23 05:00",22.5636709247344,"Approved","OW340"
"2023-05-23 06:00",22.5655510201771,"Approved","OW340"
"2023-05-23 07:00",22.5637951556197,"Approved","OW340"
"2023-05-23 08:00",22.5638932310624,"Approved","OW340"
"2023-05-23 09:00",22.564985306505,"Approved","OW340"
"2023-05-23 10:00",22.5647254519477,"Approved","OW340"
"2023-05-23 11:00",22.5647395073903,"Approved","OW340"
"2023-05-23 12:00",22.5620776528329,"Approved","OW340"
"2023-05-23 13:00",22.5617257882756,"Approved","OW340"
"2023-05-23 14:00",22.5605859037182,"Approved","OW340"
"2023-05-23 15:00",22.5593659991609,"Approved","OW340"
"2023-05-23 16:00",22.5574961546035,"Approved","OW340"
"2023-05-23 17:00",22.5562063300462,"Approved","OW340"
"2023-05-23 18:00",22.5539744354888,"Approved","OW340"
"2023-05-23 19:00",22.5532884909315,"Approved","OW340"